{"data":{"norad_id":68008,"intl_designator":"2026-039Y","name":"STARLINK-36911","alt_names":[],"object_type":"PAYLOAD","status":"ACTIVE","operator":null,"country":"US","launch_date":"2026-02-27","launch_site_code":"AFETR","launch_vehicle":null,"mission":null,"orbit_class":"UNKNOWN","rcs_meters":null,"size_class":null,"mass_kg":null,"dimensions":null,"purposes":["comms"],"wikipedia_slug":null,"has_3d_model":false,"image_url":null,"decayed_at":null,"tle_current":{"epoch":"2026-09-20T02:03:38.004192Z","epoch_age_seconds":95442,"freshness":"FRESH","line1":"1 68008U 26039Y   26263.08585653  .00014729  00000+0  54363-3 0  9997","line2":"2 68008  43.0031  31.0910 0002491 272.0370  88.0196 15.27582322 31436","mean_motion":15.27582322,"eccentricity":0.0002491,"inclination_deg":43.0031,"raan_deg":31.091,"arg_perigee_deg":272.037,"mean_anomaly_deg":88.0196,"bstar":0.00054363,"rev_number":3143,"period_min":94.266605423573,"perigee_km":481.33302342057,"apogee_km":484.75126286968,"semimajor_km":6861.1791431451,"source":"CELESTRAK","updated_at":"2026-09-20T09:00:43.739576Z"}}}